Theta_e
354 354 354 354 355 355 355 355 354 354 354 353 353 353 353 353 354 354 354 353 354 354 354 354 353 353 353 352 351 350 349 347 346 346 346 345 343 340 339 339 338 337 337 337 338 337 336 335 335 336 336 336 335 335 334 334 334 334 334 334 333 333 333 332 332 331 330 330 331 331 332 333 332 330 329 329 328 327 328 328 328 328 328 328 328
355 355 355 354 355 355 355 355 355 355 355 354 354 353 353 353 353 354 354 354 354 354 353 353 353 353 353 352 351 350 349 348 346 345 345 344 342 339 338 339 338 337 337 337 338 337 337 335 334 335 336 336 335 335 335 333 333 334 334 334 334 333 333 333 333 332 331 330 330 330 331 331 331 329 328 328 328 328 329 329 329 329 329 329 329
355 356 356 355 355 355 355 355 355 355 355 355 355 354 354 353 354 354 354 354 354 353 353 353 353 352 352 351 351 350 350 349 347 345 344 343 342 340 339 339 338 338 337 338 338 337 336 335 334 334 336 336 336 335 335 333 333 334 334 334 335 334 334 333 333 333 333 332 331 331 330 330 330 329 329 329 330 330 331 331 331 331 330 330 329
355 356 356 356 356 355 355 355 355 356 356 355 355 355 354 354 354 354 354 354 354 353 353 353 352 352 351 351 351 350 350 349 348 346 344 343 343 341 340 339 338 338 337 337 338 337 336 336 335 335 335 336 336 336 335 334 333 334 335 335 335 334 334 334 334 334 334 334 333 332 331 331 330 330 330 331 331 332 332 333 333 332 331 330 330
356 356 357 357 357 356 356 356 356 356 356 356 356 355 355 355 354 355 355 354 354 354 353 352 352 351 351 350 350 350 350 349 348 347 345 344 344 343 341 339 339 338 337 337 338 337 337 337 337 336 336 336 336 337 336 335 334 334 334 334 335 335 334 334 334 334 335 335 334 333 333 332 332 331 331 332 333 333 333 333 333 333 332 331 330
356 356 357 357 357 358 357 356 356 356 356 356 356 356 356 356 355 355 355 354 354 354 353 352 352 351 351 351 350 350 350 349 348 348 347 345 345 343 341 339 339 338 338 338 338 338 337 338 337 337 336 336 336 336 336 335 335 334 334 334 334 335 335 335 334 334 334 335 335 334 333 333 333 332 333 333 333 333 333 332 332 333 333 332 331
356 356 357 357 357 358 358 358 357 357 357 356 357 357 356 356 356 355 355 355 355 354 353 352 352 351 351 351 350 350 350 349 349 348 347 345 344 343 341 340 339 339 338 338 338 338 338 338 338 337 337 336 336 336 336 336 335 335 334 334 334 335 335 335 334 334 334 334 334 334 333 333 333 332 333 333 334 333 333 332 332 332 332 332 331
356 357 357 357 358 358 358 358 358 358 358 357 357 357 357 357 356 356 356 355 355 354 354 353 352 352 351 351 350 350 349 349 349 348 347 345 343 342 341 340 340 339 339 338 337 338 338 338 337 337 337 337 337 336 336 335 335 335 334 334 334 335 335 335 335 334 334 334 334 333 333 333 332 331 332 333 333 332 332 332 332 332 332 331 330
356 357 357 357 358 358 358 358 358 358 359 358 358 358 358 357 357 356 356 356 355 354 354 354 353 352 352 351 351 350 350 349 349 348 347 345 343 342 341 341 341 340 339 339 338 338 338 338 337 336 336 336 337 337 336 336 336 335 335 334 335 335 336 335 334 334 333 334 333 333 333 333 332 331 332 333 332 331 331 331 331 331 331 330 330
357 357 358 358 358 358 358 359 359 359 359 359 359 358 358 358 358 357 357 356 355 355 354 354 353 353 352 351 351 350 350 349 349 348 347 345 344 343 342 342 341 341 340 339 339 338 338 338 337 337 336 336 336 336 336 336 336 336 336 335 335 336 336 335 335 334 333 333 333 333 332 333 333 333 332 332 331 331 331 331 330 330 329 329 329
358 358 358 359 358 359 359 359 359 360 359 359 359 359 359 358 358 358 357 356 356 355 354 354 354 353 353 352 351 350 350 349 349 348 347 346 345 344 343 342 342 342 341 340 339 338 338 337 337 337 337 337 336 336 336 337 336 336 336 335 335 335 335 335 335 334 333 333 333 332 333 332 333 332 332 332 332 332 331 331 330 329 329 328 328
358 359 359 359 359 360 359 359 360 360 360 360 359 359 359 358 358 358 357 357 356 355 355 354 354 354 353 352 352 351 350 350 349 348 347 346 345 345 344 343 342 342 341 341 340 339 338 338 338 338 338 338 338 337 337 337 337 337 336 336 336 335 335 335 334 333 333 333 333 333 332 332 332 332 332 332 332 332 331 331 330 329 329 328 328
358 359 360 359 360 360 359 360 360 360 360 360 360 360 359 359 359 358 357 357 356 356 355 355 355 354 354 353 353 352 351 350 349 349 347 347 346 345 345 344 343 343 342 342 341 339 338 338 338 338 338 338 338 338 338 338 338 338 337 337 337 336 336 336 334 333 332 332 332 332 332 331 331 331 332 333 333 332 331 331 330 330 329 328 328
359 359 360 360 361 361 360 361 360 360 361 360 360 360 359 359 359 358 358 357 356 356 356 355 355 354 354 353 353 352 352 351 350 349 348 347 347 346 346 344 344 343 342 342 342 340 339 339 338 338 338 338 338 338 338 339 339 338 338 338 338 337 337 336 334 334 333 332 332 332 331 330 330 331 333 333 333 332 331 331 330 329 329 328 328
359 360 360 361 361 361 361 361 361 361 361 360 360 360 359 359 359 358 358 357 357 356 355 355 355 355 354 354 353 353 352 351 350 349 348 348 348 347 346 345 344 343 343 343 342 341 340 339 339 338 338 338 338 337 338 338 338 339 339 338 338 338 337 337 336 334 333 332 332 332 330 329 330 332 332 331 331 331 330 329 328 327 326 326 326
359 360 360 361 361 361 361 361 361 361 361 360 360 360 360 359 359 358 358 357 357 356 356 356 356 355 354 354 353 353 353 352 351 350 349 349 348 347 346 345 344 343 343 342 342 341 340 339 339 338 338 338 338 338 338 338 338 338 338 338 338 337 337 337 336 335 332 331 332 331 329 330 332 333 331 330 329 328 326 325 324 323 323 323 322
358 359 360 361 361 361 361 361 361 361 361 361 360 360 360 359 359 358 358 357 357 356 356 356 355 355 355 354 354 354 353 352 352 351 351 350 349 348 346 345 343 343 343 343 342 341 340 340 339 339 339 339 339 339 338 338 338 337 337 337 336 335 334 334 333 332 332 331 331 329 330 332 333 331 328 327 327 325 323 322 321 322 322 321 321
357 358 359 360 361 361 362 361 362 361 361 361 361 360 360 360 359 359 358 357 357 356 356 356 355 356 355 354 354 354 353 353 352 352 352 351 350 348 347 345 343 343 343 342 341 341 341 340 340 339 339 339 339 338 338 338 338 337 335 335 334 333 332 330 329 330 331 330 330 330 332 332 330 328 327 326 325 324 322 321 320 321 321 320 319
356 357 358 359 360 361 361 362 361 361 361 361 360 361 360 360 359 359 358 358 357 356 356 356 355 355 355 355 355 354 353 353 352 352 352 351 351 349 347 345 343 343 342 341 341 340 340 340 339 339 339 338 338 338 338 337 337 336 334 333 331 331 331 330 330 330 329 328 330 331 332 330 328 327 327 325 323 322 321 320 319 318 318 317 316
355 356 357 358 359 360 361 361 362 361 361 361 360 360 360 360 360 359 358 358 358 357 356 356 356 355 355 355 355 354 354 353 352 352 352 352 351 350 347 345 343 343 342 341 340 340 339 339 339 338 338 338 338 338 338 338 337 336 334 333 331 330 331 330 329 327 325 327 330 331 331 330 328 326 324 321 320 320 319 319 318 316 315 314 312
355 355 356 357 358 360 360 361 361 361 361 361 361 360 360 360 360 359 359 358 358 357 357 356 356 356 355 355 355 354 354 354 353 352 352 351 351 350 347 346 345 343 342 341 340 340 339 339 339 338 339 339 339 339 338 338 337 335 333 333 332 331 330 329 326 324 325 328 331 331 330 327 324 322 320 319 319 319 319 318 316 315 314 312 310
355 355 356 357 357 359 360 360 361 361 361 361 360 360 360 360 360 359 359 358 358 357 357 356 356 356 356 355 355 355 354 354 354 353 351 351 351 350 349 347 346 344 342 341 340 340 339 339 339 339 339 339 338 339 338 337 335 334 333 333 332 330 329 326 324 324 327 330 331 329 326 323 320 318 318 319 319 319 317 316 315 314 312 310 310
355 355 355 356 357 358 359 360 361 361 361 361 360 360 360 360 360 360 359 359 358 357 356 356 356 354 354 354 354 355 354 354 354 353 352 351 350 349 348 347 345 344 342 341 340 340 339 339 339 338 338 338 338 337 337 335 334 333 333 332 331 329 327 326 326 328 330 330 328 324 320 317 316 317 318 319 319 318 316 316 315 314 313 311 309
355 356 355 355 356 357 358 360 360 361 361 361 360 360 360 359 359 360 359 359 358 357 356 355 354 352 351 351 351 352 352 352 352 352 351 350 349 348 346 346 345 343 342 341 340 340 339 338 337 337 337 337 337 336 336 335 333 333 333 332 330 328 327 328 329 330 329 326 321 318 316 316 316 317 318 318 318 317 317 316 315 313 312 310 308
355 355 355 355 355 355 356 358 359 361 361 361 360 360 359 359 359 359 359 358 357 356 354 353 352 350 349 348 348 349 350 351 351 350 350 349 348 347 345 345 343 342 341 340 340 339 338 337 336 335 335 335 335 335 335 334 333 333 332 330 328 327 329 330 331 328 325 320 317 315 315 316 316 316 317 318 318 318 318 317 316 313 311 308 307
355 354 354 355 354 354 355 356 358 359 361 361 361 360 360 359 359 359 358 358 356 354 352 351 350 348 347 345 345 346 348 350 350 349 348 347 346 346 344 343 341 340 339 339 338 337 336 334 334 334 334 335 335 334 334 332 332 331 329 328 328 329 330 330 327 323 320 317 316 316 315 315 316 316 317 318 318 318 318 316 313 311 308 307 307
356 356 355 354 353 354 354 354 356 358 360 361 361 361 360 360 359 358 357 356 354 352 349 348 346 345 344 343 343 343 345 347 348 347 346 345 343 343 342 340 338 338 337 336 335 334 333 333 333 334 334 334 333 333 332 331 330 329 328 329 330 330 329 326 323 320 317 317 317 316 316 316 317 317 318 318 319 318 315 312 309 308 307 307 306
358 357 356 354 353 353 353 354 356 357 359 361 361 361 361 359 358 357 357 356 353 348 346 345 344 343 342 341 340 339 340 343 345 344 343 342 341 340 339 337 336 336 335 334 333 332 333 334 334 333 332 331 330 330 331 330 329 329 330 330 330 329 326 323 320 318 317 317 317 317 317 317 317 318 319 319 318 315 311 308 307 307 306 306 306
361 360 358 357 355 353 353 355 355 357 359 360 360 360 360 359 358 357 356 356 353 350 349 347 345 344 343 341 339 338 338 340 343 343 341 341 340 339 338 336 335 335 334 333 334 334 334 333 332 331 330 329 330 330 330 331 331 331 331 330 329 326 323 321 319 318 317 317 317 317 317 318 319 319 318 317 315 311 308 307 307 306 306 306 305
362 362 362 361 359 358 358 357 358 358 358 357 356 355 354 355 355 354 353 353 353 355 354 349 345 345 344 340 339 341 343 344 343 342 341 340 340 339 338 337 336 334 333 334 335 335 333 330 330 330 330 331 332 332 332 331 331 330 330 329 327 324 322 320 319 317 317 317 317 317 319 320 319 316 314 312 310 308 307 306 306 306 306 305 304
356 354 354 353 353 354 354 355 356 355 353 352 350 344 340 341 345 348 350 350 350 352 351 346 344 347 347 342 340 342 345 345 342 341 341 340 339 338 337 336 335 334 334 335 335 332 331 330 330 331 332 332 332 332 331 331 330 329 328 326 324 322 321 320 320 319 318 318 319 320 320 318 315 312 310 309 308 307 306 306 306 305 305 304 304
348 344 343 343 343 343 342 342 344 344 345 347 344 338 334 333 334 338 344 347 347 346 346 345 345 347 347 346 344 343 342 342 341 340 339 338 337 337 336 335 334 334 335 335 333 331 331 331 332 332 332 332 331 331 331 330 329 328 326 324 323 322 322 321 321 320 320 320 320 320 317 313 310 309 309 308 306 305 305 306 305 304 304 303 304
342 340 340 340 339 339 338 337 336 336 338 339 338 337 337 333 328 328 333 339 342 342 343 343 344 345 345 347 347 344 341 340 339 339 338 338 337 336 335 334 334 334 334 334 332 332 332 331 331 332 331 330 330 330 329 328 327 326 325 324 324 324 323 323 322 322 322 321 319 315 311 310 309 309 308 306 305 305 305 305 304 304 303 303 304
339 338 338 338 337 337 337 338 338 337 337 337 336 336 337 335 330 328 330 333 335 337 338 339 341 342 343 344 343 342 341 340 339 339 339 339 337 335 334 334 333 333 333 333 333 333 331 330 330 331 329 328 328 327 326 325 324 324 323 323 323 323 322 322 322 321 320 317 313 311 310 310 309 308 307 306 305 305 305 304 303 303 304 304 304
338 338 337 337 336 336 336 336 337 337 336 336 335 334 334 335 335 335 335 334 331 330 332 336 338 340 341 341 341 341 341 341 340 340 340 339 337 334 333 332 330 330 331 332 333 332 330 329 330 329 328 327 326 325 323 322 322 321 321 320 320 319 319 320 319 317 314 312 311 310 310 309 308 307 306 306 305 305 304 303 303 303 304 304 304
338 338 337 336 335 335 334 335 335 335 334 333 334 334 334 335 335 335 334 332 329 327 328 331 335 338 340 341 342 341 341 341 340 340 340 338 336 333 332 330 329 329 329 331 331 330 329 329 329 327 325 324 322 321 320 319 319 318 318 318 317 316 316 316 314 312 311 311 310 309 306 306 306 306 306 305 305 304 304 303 303 303 304 303 304
338 338 337 336 336 335 334 334 334 335 335 335 335 335 334 334 333 332 329 329 330 330 330 331 335 337 338 339 340 340 339 338 338 337 337 336 334 332 332 331 330 329 330 330 330 329 329 329 327 325 322 321 319 318 318 318 318 317 317 316 316 315 315 314 313 312 311 310 308 306 306 306 306 306 305 305 304 304 303 303 303 303 304 303 304
338 338 338 337 336 336 335 335 334 334 335 336 335 335 334 333 332 331 328 328 330 331 331 332 334 335 334 334 337 338 337 335 334 333 332 331 331 331 331 331 331 330 330 329 329 329 329 327 325 322 320 319 318 318 318 317 317 317 316 315 314 314 314 313 312 311 310 308 307 307 307 307 307 306 305 304 304 304 303 303 303 303 303 304 304
337 337 337 336 336 335 335 334 333 333 334 334 334 334 333 332 330 328 327 327 328 329 329 329 329 331 333 335 336 336 334 332 332 331 330 330 330 330 330 331 330 330 329 329 329 328 327 325 322 320 319 319 319 318 318 318 317 316 315 314 313 312 312 311 310 309 308 307 307 307 307 307 306 305 305 304 304 303 303 303 303 303 303 304 304
337 336 336 335 335 334 334 333 332 332 333 333 333 333 332 330 329 328 327 327 327 328 329 328 328 330 333 335 335 335 333 332 331 331 330 330 330 329 329 330 330 329 329 329 328 327 325 322 320 319 319 319 319 318 318 317 316 315 314 313 312 312 311 310 309 307 306 306 306 305 305 306 306 305 304 304 303 303 303 302 302 303 303 304 304
337 337 337 336 335 334 333 333 332 332 332 332 333 332 331 329 329 329 328 328 328 328 329 330 330 332 335 336 336 335 334 332 332 331 331 331 330 329 329 330 330 330 329 328 328 326 323 320 320 320 319 319 318 318 317 316 315 314 313 313 312 312 311 309 307 306 305 304 305 304 304 305 305 305 304 303 303 303 302 302 302 303 304 304 304
339 338 338 338 337 336 335 334 333 333 333 332 332 331 330 330 330 330 329 329 329 328 328 327 328 331 334 334 334 333 332 331 330 330 330 330 330 329 329 329 329 329 328 327 327 325 322 321 320 320 319 318 318 317 317 316 315 314 314 313 312 312 310 308 306 304 304 304 304 304 305 305 304 304 303 303 303 301 299 299 302 303 304 304 304
339 339 339 339 338 338 337 336 335 335 334 333 333 332 332 331 331 331 330 329 329 329 328 326 327 329 330 330 331 331 329 328 329 329 329 329 329 329 329 328 328 327 326 326 326 325 324 323 321 319 319 319 318 317 316 315 315 315 314 313 313 312 310 308 306 305 304 304 304 304 305 304 304 304 303 303 302 300 297 297 301 303 304 303 304
339 339 339 339 339 338 337 337 336 335 335 334 334 333 333 332 331 331 331 330 330 330 330 330 329 329 328 328 328 326 325 326 327 328 328 328 328 328 328 327 326 325 325 325 325 325 325 324 321 319 319 319 318 317 316 315 315 315 314 313 312 310 309 308 307 306 305 305 304 304 304 303 304 304 303 302 301 299 296 296 299 303 304 303 303
337 337 337 338 338 337 337 337 336 335 335 334 333 332 331 331 330 330 330 329 329 329 329 329 329 329 329 328 326 324 323 324 325 326 326 326 326 326 326 325 324 324 324 323 324 324 323 321 320 319 319 318 317 316 316 315 315 315 314 313 311 310 309 308 307 306 305 305 304 304 304 304 303 303 302 300 299 298 295 296 300 303 304 303 303
335 335 335 335 335 335 336 336 336 335 335 334 333 332 331 330 330 329 329 328 328 328 327 327 327 328 328 327 325 324 324 324 324 324 324 324 324 324 324 324 325 324 322 321 322 323 321 320 320 320 319 318 317 316 316 316 315 314 313 312 311 310 309 307 306 305 305 304 303 303 303 302 301 300 299 298 297 295 295 298 301 304 304 303 302
333 333 332 332 332 332 333 333 334 334 334 333 333 333 331 330 330 329 328 328 328 327 326 325 325 325 326 326 326 325 325 324 324 324 324 324 324 324 324 324 325 324 322 321 321 321 321 321 321 320 320 318 316 316 316 315 314 313 312 311 310 309 308 306 306 305 304 303 302 302 301 300 299 298 297 297 295 295 296 300 303 304 303 303 302
332 332 332 331 330 330 331 331 331 331 332 332 332 333 333 331 330 330 329 328 327 327 326 325 325 325 324 324 325 324 324 324 324 323 323 323 323 323 323 323 324 324 323 322 320 320 321 321 321 321 320 318 316 316 316 315 313 312 311 311 309 308 307 306 305 304 302 301 301 300 300 300 300 298 297 295 295 296 299 302 304 303 303 303 302
330 331 331 330 329 329 329 329 329 329 329 330 329 329 330 330 330 330 329 328 327 327 327 327 327 326 324 323 324 324 324 323 323 322 322 322 322 322 322 322 321 322 321 321 320 320 320 321 321 321 319 318 317 317 316 314 313 312 311 310 309 307 305 304 303 302 301 301 300 300 301 301 301 298 296 295 294 296 300 303 303 303 303 302 301
328 329 330 330 329 328 329 329 328 327 327 326 326 326 327 327 328 329 329 328 329 329 328 327 326 325 324 324 324 324 323 323 322 322 322 323 323 323 323 323 322 321 320 320 320 321 320 320 320 319 318 317 317 316 315 313 313 312 311 309 307 305 304 304 303 302 302 302 301 301 301 301 300 298 296 294 294 296 300 303 303 303 302 301 300
328 329 329 329 328 327 328 328 327 326 325 324 325 326 327 327 327 329 330 330 330 329 329 328 327 326 325 325 324 324 323 323 322 322 322 323 322 322 323 323 323 322 321 321 321 321 320 319 319 318 318 317 316 315 314 313 312 311 310 308 306 305 305 305 305 304 303 302 302 302 302 300 299 296 295 293 294 298 302 303 303 302 301 300 300
Wind_Speed
45 44 44 44 43 42 42 42 42 42 41 40 39 40 40 39 39 38 38 38 38 39 38 38 38 39 39 39 38 38 37 37 37 37 37 36 36 35 34 33 33 32 31 29 28 27 26 26 26 24 22 21 20 19 18 18 18 19 18 18 17 15 14 14 11 9 10 11 10 10 11 11 12 12 13 13 13 13 13 13 15 16 17 18 18
45 44 43 43 43 43 42 41 41 41 41 40 40 40 40 40 40 38 38 38 39 39 39 39 39 39 40 40 40 39 38 38 38 38 38 38 37 36 35 35 34 33 32 32 31 29 28 27 27 26 24 23 22 21 20 20 19 19 19 18 17 16 15 15 14 11 11 12 12 11 11 11 12 12 12 12 12 12 14 14 15 16 17 17 18
44 44 43 43 44 43 41 41 41 41 41 41 41 41 41 41 40 39 39 39 39 40 40 40 40 40 40 41 40 40 39 39 38 39 39 39 38 37 37 36 36 35 34 34 32 30 29 29 28 28 26 24 23 21 21 21 21 20 20 19 18 16 15 16 15 13 13 13 13 12 11 11 12 11 11 12 13 15 17 18 18 19 19 19 19
42 42 43 43 42 42 41 41 41 41 42 42 42 42 42 41 40 40 40 39 39 40 40 39 39 40 41 41 41 41 40 40 39 40 40 40 39 39 38 37 36 36 35 34 33 32 31 31 30 28 27 26 24 22 21 22 22 21 20 20 20 18 17 17 18 16 15 15 16 15 13 12 12 12 12 14 16 17 19 20 21 21 21 21 21
40 42 42 41 40 41 41 41 41 42 43 43 42 43 42 41 40 40 40 39 39 39 39 39 39 40 42 42 41 41 40 40 40 40 40 40 40 40 38 38 37 35 35 34 33 33 33 33 32 30 28 27 25 23 22 22 22 21 20 21 21 21 19 19 19 19 18 19 19 18 15 13 14 15 15 16 18 20 21 21 21 22 22 22 22
40 41 41 40 40 40 40 41 42 43 43 43 42 41 41 41 40 40 40 40 39 38 38 39 40 41 43 42 41 41 40 41 41 40 40 40 40 40 38 37 36 35 34 34 34 34 33 33 32 31 30 28 27 25 23 23 23 22 22 22 22 22 21 20 20 20 21 22 22 20 18 17 17 17 17 17 19 21 21 21 21 21 21 22 23
40 41 41 40 40 41 42 43 43 43 43 42 41 40 40 40 40 40 40 39 39 38 39 39 40 41 42 41 40 40 40 40 40 40 40 40 40 39 38 37 36 35 35 34 34 34 33 32 33 32 31 31 29 27 25 24 24 24 24 23 23 23 22 21 21 20 20 21 21 20 19 17 17 19 20 19 19 20 20 20 21 21 20 21 22
40 40 41 40 41 42 43 43 42 42 42 41 40 40 39 40 40 40 39 39 39 39 39 39 39 39 40 40 40 39 39 39 40 40 40 40 39 38 37 36 35 35 35 34 34 34 33 33 34 33 33 33 31 29 28 26 25 25 25 23 23 23 22 22 21 19 19 19 19 18 16 14 17 21 22 20 18 19 19 18 19 21 20 20 20
40 40 40 41 43 43 42 41 40 40 40 40 40 40 40 40 39 38 38 39 39 39 38 38 38 37 38 38 38 38 39 40 41 42 41 40 38 37 36 35 34 34 34 34 34 34 34 34 34 34 34 33 32 30 29 27 26 25 25 24 23 24 24 24 21 19 18 17 17 17 14 14 19 21 20 19 18 20 20 17 18 20 20 20 21
40 40 41 43 44 42 40 40 39 39 39 40 40 40 39 39 38 38 38 39 38 37 37 37 37 38 38 37 37 38 39 41 42 43 42 40 38 37 35 35 34 33 33 32 33 33 34 34 34 33 32 31 30 30 29 28 26 26 25 25 25 26 27 25 22 21 20 18 18 17 15 16 20 20 18 20 21 21 20 18 18 19 18 18 20
40 41 43 44 42 40 40 40 39 39 40 40 40 40 39 38 37 37 37 37 37 36 36 36 37 38 38 37 37 39 41 42 42 42 42 40 38 37 35 34 34 33 33 32 33 33 33 33 32 31 30 29 29 29 29 28 26 25 26 26 26 27 28 26 23 22 21 19 18 17 15 16 18 19 20 22 22 20 19 18 18 18 17 14 15
39 41 41 40 38 39 40 40 40 40 40 40 40 39 38 37 37 37 36 37 36 36 36 37 38 39 38 38 38 40 42 42 41 41 40 40 39 37 36 35 34 34 33 33 33 32 31 31 31 30 30 29 28 28 27 26 25 25 25 26 26 27 26 25 24 23 22 20 18 17 16 15 16 19 21 21 20 18 17 17 16 17 16 14 14
39 39 38 36 37 38 39 39 39 40 41 41 39 38 37 38 38 37 37 36 36 36 37 38 38 38 38 38 39 41 41 40 39 39 38 38 39 38 37 36 35 34 34 34 34 32 30 30 30 29 29 29 27 27 26 26 25 24 24 25 26 27 27 26 25 24 22 21 19 19 18 16 16 18 20 19 18 17 16 16 17 16 16 15 17
37 37 36 37 38 38 38 39 40 40 40 40 38 38 38 39 39 38 36 35 35 37 38 39 39 39 38 38 39 39 39 38 37 37 36 36 37 38 39 37 35 35 34 34 34 33 32 31 30 29 28 27 26 26 26 26 24 24 25 26 27 28 27 27 27 26 24 20 19 19 18 17 17 17 17 16 16 16 15 15 16 16 16 16 17
36 36 36 37 38 38 38 39 39 39 38 38 38 38 39 39 38 37 35 35 38 39 39 39 40 39 39 39 38 37 37 36 35 35 36 36 36 38 39 37 35 34 34 34 34 34 32 31 30 29 28 26 25 24 25 25 24 25 26 26 27 29 29 29 29 29 26 20 18 18 17 16 17 16 14 13 14 14 13 12 13 14 16 17 17
35 35 35 36 37 38 39 39 38 38 37 37 38 39 39 39 38 37 36 37 38 38 38 39 39 39 38 38 37 36 35 33 33 34 34 34 35 37 38 38 35 34 33 33 34 33 31 29 29 28 27 25 23 22 23 23 24 24 25 26 27 28 29 29 27 26 23 20 19 18 15 15 15 14 13 12 11 11 10 11 13 13 15 15 15
34 35 36 37 39 40 40 40 38 37 36 37 38 39 39 38 38 38 38 38 37 38 38 38 38 38 38 38 37 36 33 31 32 32 32 33 35 36 38 38 35 33 33 33 32 31 29 28 27 27 25 23 22 22 22 22 23 23 22 23 23 23 23 22 20 19 18 18 17 16 14 13 12 11 10 9 8 9 10 12 14 13 13 12 10
34 35 37 39 41 41 42 41 39 38 37 38 39 39 38 39 39 40 40 39 38 39 38 37 37 38 38 38 38 35 32 32 32 32 32 33 34 36 37 36 34 32 32 31 29 28 27 26 25 24 23 21 21 21 21 21 21 20 18 18 20 22 21 17 14 14 15 13 12 12 11 11 10 9 8 8 9 11 12 13 12 10 10 9 8
35 37 40 42 43 42 42 42 40 39 39 40 40 39 39 39 39 39 39 39 38 37 36 35 35 36 36 36 37 34 33 33 33 32 31 32 33 35 36 34 32 31 30 28 26 26 26 24 23 21 20 20 20 21 20 19 20 20 17 18 22 23 20 15 12 11 10 9 9 10 10 11 11 10 10 10 11 11 11 10 8 6 6 7 9
38 40 42 42 41 41 40 41 41 41 41 41 41 41 40 38 37 37 37 37 36 35 36 36 35 34 35 35 35 34 34 35 33 31 31 31 31 33 34 33 32 30 29 27 26 24 23 22 21 20 20 20 20 20 19 19 19 17 15 17 21 22 17 13 11 9 8 9 10 11 11 12 11 11 11 11 10 10 8 7 6 6 6 9 11
40 41 41 38 37 38 39 40 43 43 43 42 40 40 39 37 36 37 37 35 34 34 35 35 34 33 34 34 33 34 36 36 33 32 31 29 29 31 34 34 33 31 29 27 25 24 22 20 20 19 19 19 19 19 17 17 16 14 13 16 20 19 15 11 9 8 9 9 10 11 11 11 10 10 9 8 6 5 4 5 6 7 9 10 11
39 38 35 32 32 34 35 37 39 40 40 40 38 38 39 38 37 37 35 34 34 34 34 33 32 31 32 33 34 34 35 35 33 32 30 28 27 30 33 34 33 31 29 26 24 23 22 21 20 18 17 17 16 14 14 14 14 14 14 17 18 16 13 10 9 9 9 10 11 11 10 9 7 5 3 3 3 3 3 6 8 9 10 12 12
30 29 28 28 30 32 34 36 36 37 37 37 37 36 36 36 36 36 35 34 33 32 32 31 30 28 28 29 31 33 33 32 31 30 29 26 26 29 32 32 31 30 28 26 24 23 22 21 20 18 17 15 13 13 13 14 14 14 15 17 17 14 12 11 10 10 11 11 11 9 6 3 1 0 2 2 2 4 6 9 10 11 12 14 14
22 23 26 29 30 32 34 36 37 36 36 36 36 36 35 35 35 34 34 33 31 29 28 29 28 27 26 26 27 29 29 29 27 27 26 25 26 28 30 31 29 27 25 23 22 21 21 21 20 18 16 14 14 14 14 13 13 14 15 16 14 13 12 11 10 11 12 10 8 4 2 2 2 2 3 3 4 6 9 11 12 13 14 15 14
19 22 25 28 30 32 33 34 35 36 36 36 36 36 35 34 33 33 33 32 29 27 26 27 27 25 25 26 27 27 28 27 26 25 24 24 24 24 27 29 27 24 22 19 17 17 17 17 17 16 16 15 15 15 15 14 14 15 15 15 13 13 12 11 12 12 11 8 5 4 5 4 3 3 4 5 7 9 11 13 14 15 15 14 13
22 24 25 27 30 30 31 32 35 36 37 38 37 37 36 34 33 32 31 30 28 26 25 25 26 25 25 25 27 28 28 28 28 26 25 24 23 23 25 27 25 21 18 16 14 13 13 13 14 15 16 16 16 15 15 15 16 16 14 13 13 13 12 12 12 12 9 7 7 7 6 5 5 5 6 8 10 11 11 13 15 15 13 12 13
24 25 27 30 32 33 34 35 35 36 37 38 37 35 34 34 33 31 30 29 27 24 22 20 17 18 21 23 26 28 29 29 29 28 27 26 24 24 24 25 23 20 17 14 13 13 13 14 16 17 17 16 15 14 14 15 16 15 13 13 13 13 12 12 11 10 9 9 8 8 7 7 7 8 9 10 11 11 10 12 13 12 11 12 14
24 26 29 30 32 34 35 36 35 35 35 35 34 33 33 35 35 35 37 37 33 30 28 26 23 20 20 22 25 27 28 30 31 31 29 28 27 25 23 24 23 21 19 17 17 17 18 19 20 19 18 17 15 14 14 14 14 13 13 13 13 13 12 12 12 12 11 11 10 9 8 9 10 10 11 10 10 9 9 10 11 11 10 11 12
19 22 25 27 30 32 32 33 33 31 30 30 31 32 35 39 40 40 42 45 45 44 41 38 38 35 31 27 27 26 26 30 33 32 29 28 27 26 25 24 23 21 20 20 20 22 23 23 22 22 19 17 15 14 14 13 13 13 14 14 13 13 13 13 14 14 13 12 11 10 10 11 12 11 9 9 9 9 9 9 9 10 10 10 10
11 13 15 18 21 25 27 30 31 29 30 32 32 30 29 34 39 40 41 42 46 47 43 39 40 41 38 33 31 30 30 32 33 30 27 26 25 25 24 23 21 21 21 21 23 25 26 24 23 21 19 17 16 15 15 15 15 15 15 14 14 15 14 14 14 14 14 13 12 12 12 12 10 9 8 9 10 9 9 8 8 8 8 8 10
5 3 3 3 2 2 6 13 20 28 32 33 32 29 25 23 25 31 37 40 39 38 36 37 39 39 37 35 32 28 28 30 30 27 25 24 24 23 22 21 21 22 23 24 24 25 25 23 21 20 19 18 17 16 17 17 16 15 15 15 16 15 15 15 15 15 15 15 13 12 12 10 9 9 10 10 10 9 8 8 7 6 6 8 11
10 13 14 14 14 14 13 10 2 11 22 29 32 32 28 25 24 26 33 37 36 33 33 35 36 35 35 36 31 24 23 26 27 25 24 24 23 22 22 22 23 24 24 25 24 24 23 22 21 20 19 18 17 17 17 16 15 14 15 15 15 14 14 15 15 16 16 15 12 11 10 10 10 11 10 9 8 8 8 7 5 6 8 10 12
14 16 17 17 17 17 17 15 13 10 6 7 21 31 33 29 28 31 34 35 35 33 31 30 32 33 32 30 26 22 23 25 25 24 24 23 22 21 22 23 24 25 26 26 24 23 23 22 22 21 19 17 16 16 15 14 14 14 14 13 12 11 12 12 13 13 13 12 11 11 11 10 10 10 9 8 8 8 6 5 5 7 9 11 12
15 15 17 19 19 18 17 16 15 10 10 12 8 14 29 38 37 35 33 31 31 31 28 24 26 27 25 22 21 22 23 24 23 24 23 21 21 23 24 25 26 26 27 25 24 23 23 22 21 19 18 16 16 15 14 13 13 12 11 10 9 8 9 10 11 11 11 12 12 11 10 9 10 10 9 8 7 6 4 4 6 8 9 11 12
14 13 12 11 11 12 11 13 15 11 6 5 10 13 7 28 39 36 29 26 27 30 28 22 21 23 24 23 21 21 21 21 22 22 22 22 24 25 27 28 28 27 25 24 23 23 23 22 20 18 17 16 15 14 13 13 12 10 9 8 8 8 9 10 11 12 13 12 10 9 9 10 11 10 9 7 6 4 4 5 7 8 9 10 12
16 15 12 7 5 5 7 11 13 10 6 8 5 10 12 22 32 32 30 31 33 33 29 22 20 22 23 22 20 18 19 20 21 22 22 24 26 28 29 30 29 26 24 23 22 22 22 21 19 18 17 16 16 15 14 13 12 10 9 8 8 9 10 12 13 13 11 10 9 10 10 11 10 8 6 6 5 4 4 6 7 8 9 10 12
17 17 16 12 9 7 3 4 11 16 16 15 11 10 17 25 26 27 30 34 36 33 28 24 23 22 22 21 20 21 21 20 19 20 21 22 24 27 29 30 29 27 25 24 22 21 21 20 20 19 19 19 19 18 16 14 12 11 10 9 10 12 12 13 13 12 11 11 11 11 11 10 9 8 6 5 4 4 4 6 7 8 9 10 12
16 16 17 17 16 13 7 2 5 13 20 22 18 16 20 24 24 24 26 30 33 32 27 24 25 25 24 23 23 23 23 21 21 21 21 23 24 25 26 28 29 28 27 25 23 22 21 21 21 21 21 21 20 18 16 14 12 12 12 12 13 14 14 14 14 13 12 12 12 13 12 10 10 9 7 6 5 5 5 6 7 8 9 10 12
17 17 18 21 22 19 14 8 6 9 16 21 22 21 22 23 23 23 23 25 27 26 24 23 24 26 28 27 27 26 25 24 23 23 23 25 25 24 24 26 27 27 27 26 24 22 22 23 23 23 23 21 19 18 16 14 13 13 13 14 15 16 16 16 15 14 13 13 12 13 12 12 11 10 8 7 6 5 6 6 7 9 10 11 12
18 18 18 19 21 21 18 14 10 10 15 20 23 24 23 22 22 23 23 23 23 23 23 24 25 27 29 29 29 28 26 25 24 25 26 27 26 24 24 25 26 26 26 26 25 23 24 25 25 24 23 20 19 17 15 14 14 14 14 15 16 16 16 15 14 13 13 13 13 13 12 12 12 11 9 7 6 5 6 7 8 9 9 11 13
20 21 20 20 20 20 19 16 14 13 16 19 22 23 23 23 23 23 23 23 23 23 22 23 25 27 28 28 27 26 26 26 27 28 28 28 28 27 25 24 25 25 25 26 26 26 25 26 26 24 22 20 19 17 15 15 15 15 15 15 16 15 15 15 15 14 14 13 13 13 12 12 12 11 9 7 6 6 7 8 8 8 9 11 12
21 21 22 22 22 21 20 18 17 17 18 19 21 22 23 24 24 24 24 23 23 22 21 21 23 25 26 26 27 25 24 25 28 28 28 29 29 28 26 24 23 22 23 25 28 28 27 26 24 23 22 22 19 17 16 16 16 16 16 16 16 15 15 16 15 15 13 12 12 11 11 12 12 11 8 7 6 7 8 8 8 8 9 11 11
15 17 17 17 18 19 19 19 19 20 20 20 21 22 23 24 23 23 23 22 22 22 20 19 21 24 25 25 25 23 21 22 25 27 28 28 28 26 24 22 21 20 20 22 25 27 26 24 24 24 23 21 19 17 16 17 17 17 18 18 16 16 16 16 16 15 12 11 10 11 12 12 12 9 8 7 7 8 9 9 8 8 10 11 11
12 13 13 14 14 15 16 17 17 18 18 19 19 20 21 22 22 22 22 21 19 19 19 18 20 22 23 24 23 21 19 20 23 25 25 26 25 24 22 21 19 18 18 19 22 24 23 23 24 25 23 20 17 16 16 16 17 18 19 18 17 17 17 17 16 14 11 10 10 11 12 12 11 9 8 8 8 10 10 10 9 9 9 10 10
9 10 10 11 11 11 12 13 14 15 16 17 17 17 18 19 20 20 20 20 19 19 18 18 18 20 22 24 24 21 18 17 19 20 21 22 22 22 22 21 20 19 18 18 20 21 22 23 25 25 22 19 18 18 17 17 18 18 18 16 16 16 16 15 13 12 10 10 10 11 12 12 11 10 9 9 10 11 11 9 8 8 8 9 10
6 7 8 9 9 9 9 10 11 12 13 14 14 14 15 16 17 18 19 19 19 18 18 18 19 20 23 24 24 21 18 16 15 16 18 19 20 22 22 22 22 21 19 17 17 19 21 24 25 23 21 19 19 20 20 20 19 18 16 14 12 12 11 11 11 10 10 10 10 10 11 10 9 9 10 11 11 11 9 8 7 6 7 7 10
4 6 8 10 10 9 9 10 10 11 11 11 13 14 14 14 15 16 17 17 18 17 17 18 19 19 21 22 22 21 18 16 15 15 16 17 18 20 21 22 23 23 21 18 16 16 18 21 22 21 20 21 22 22 21 21 20 18 16 13 11 10 9 9 9 9 9 9 9 9 9 8 8 9 10 11 10 9 8 7 6 6 6 7 9
7 7 8 11 13 11 9 9 9 8 8 7 7 11 14 15 15 16 17 17 18 18 17 16 16 17 18 20 21 20 19 17 16 15 15 15 15 16 18 19 21 23 23 21 18 17 17 18 19 20 22 23 22 21 21 22 21 18 15 13 11 10 8 8 7 8 8 9 8 7 7 7 7 8 9 9 9 9 8 7 6 5 6 7 9
7 5 4 7 9 8 6 5 4 3 4 3 1 3 6 10 14 17 18 18 17 17 16 15 15 16 17 19 20 20 19 18 17 16 15 14 14 13 14 15 17 19 21 21 20 18 18 18 20 23 25 24 23 23 24 23 21 17 14 13 11 9 7 6 6 6 7 8 8 7 7 7 8 8 8 8 8 8 8 7 6 6 6 7 7
3 1 1 2 3 2 2 0 1 2 4 4 3 2 3 5 9 14 17 17 16 16 15 15 16 17 17 18 19 19 19 18 17 16 16 15 13 12 12 12 14 17 19 20 19 19 19 20 23 25 26 26 26 26 24 22 19 16 14 12 11 9 8 6 5 6 6 7 8 8 8 9 9 8 7 7 8 8 7 6 6 6 6 5 5
1 0 2 3 4 4 4 4 5 5 7 6 5 9 11 12 13 14 16 16 15 15 15 15 15 15 14 14 16 17 17 17 16 16 17 16 15 13 13 14 14 16 19 20 19 19 21 23 25 26 27 27 26 25 23 20 18 16 14 12 11 10 9 7 6 6 7 7 8 9 9 10 9 7 7 7 8 8 7 6 5 5 4 4 6
Wind_Direction
203 204 206 207 208 208 209 209 209 210 212 212 212 213 216 217 217 218 217 218 219 219 221 221 219 219 219 220 220 221 222 222 223 224 225 227 228 229 228 227 228 230 230 229 229 229 230 230 229 227 227 230 230 231 231 230 229 226 226 228 227 229 231 224 222 237 241 234 231 229 229 234 242 248 254 259 262 268 274 282 288 291 293 295 295
203 204 205 207 209 209 209 209 209 210 211 212 212 213 215 217 217 218 218 219 220 220 222 221 220 219 218 220 220 221 222 223 224 224 225 226 226 226 226 226 228 229 229 230 229 229 230 231 230 228 228 232 234 234 234 231 228 227 227 229 229 229 230 230 228 233 242 244 243 245 244 247 256 261 266 272 276 279 283 288 293 295 296 296 294
202 203 205 207 209 209 209 209 209 209 210 212 213 213 215 216 217 217 218 220 221 221 222 220 219 218 218 219 220 221 222 223 224 224 225 225 224 225 226 227 229 230 229 229 228 228 230 230 230 228 228 233 235 236 236 232 229 229 228 230 232 233 234 236 233 234 246 255 258 260 256 257 266 273 279 284 284 286 288 292 296 297 298 299 297
202 203 205 207 208 208 209 209 209 209 210 211 213 213 214 215 216 217 218 219 220 220 220 219 218 217 217 219 219 220 222 223 224 225 225 225 225 226 227 227 230 231 230 229 228 228 230 230 231 230 229 232 236 237 236 233 230 229 229 230 232 236 239 240 239 240 246 256 265 270 270 274 282 284 283 283 285 288 291 294 295 296 297 298 298
200 202 205 206 207 208 208 208 209 209 210 212 213 213 214 214 215 216 217 217 218 219 218 217 217 217 218 219 220 220 221 222 224 225 225 226 227 227 228 229 230 231 231 231 229 230 231 232 233 232 231 233 235 237 236 231 228 228 230 232 234 237 241 243 244 244 244 250 259 266 273 280 286 285 282 285 290 293 293 293 293 292 293 296 297
200 202 204 205 206 208 208 208 209 210 211 212 213 213 213 213 214 215 215 215 216 217 216 216 217 218 220 220 221 221 222 223 224 225 226 226 227 228 228 229 231 232 232 232 232 233 233 233 235 235 234 234 234 234 233 230 228 231 234 237 237 237 240 245 248 246 246 248 253 261 269 274 279 282 284 289 291 292 293 294 294 289 286 290 294
199 201 203 204 206 207 208 209 210 210 211 213 213 214 214 213 214 215 215 214 215 215 216 217 218 220 221 221 222 223 223 223 224 225 226 226 226 227 227 228 230 232 233 233 234 235 234 235 237 237 236 237 236 235 233 230 231 235 238 241 240 238 240 247 250 248 248 249 250 255 263 270 281 289 292 292 289 288 290 290 291 292 289 286 289
198 200 202 204 206 208 209 209 210 211 212 212 213 214 214 214 215 215 214 214 215 215 216 218 219 221 222 222 223 223 223 223 224 225 226 226 226 226 226 227 229 231 233 235 235 236 237 237 239 239 239 239 238 238 238 236 236 238 240 242 242 241 244 248 250 246 245 246 248 254 262 273 284 287 288 289 287 290 293 287 283 290 292 288 287
198 200 201 204 207 208 208 208 210 211 211 212 213 213 214 215 215 214 214 214 215 216 217 218 219 221 222 223 223 223 224 224 224 224 225 225 225 226 227 228 229 231 233 235 236 237 238 239 241 241 241 241 240 241 241 241 242 242 242 241 240 242 245 248 246 241 239 240 245 254 262 267 270 273 279 287 290 295 298 290 280 285 289 288 289
197 199 202 205 207 207 206 207 208 209 210 211 212 213 214 214 214 214 215 215 215 215 216 218 219 221 222 223 223 223 224 225 226 226 225 224 224 226 227 228 230 232 233 234 236 237 239 240 241 241 242 243 242 241 242 242 243 246 246 243 240 241 244 244 242 238 236 236 241 250 256 259 264 272 285 294 297 298 298 291 285 287 288 287 292
198 200 204 206 205 204 204 205 206 208 210 211 212 212 213 213 214 214 214 215 214 214 215 217 219 222 223 223 223 224 226 227 227 227 226 226 225 226 227 229 231 232 234 235 236 238 238 240 241 241 241 241 241 242 242 242 242 244 245 245 245 247 245 242 239 237 237 236 239 245 250 257 270 283 293 297 299 301 299 294 290 288 287 285 290
200 203 206 205 203 202 203 203 205 207 209 210 211 212 212 212 213 214 214 214 213 213 214 216 219 221 222 224 225 226 228 228 228 228 227 226 226 227 228 229 231 233 234 235 238 238 238 240 241 240 240 241 241 242 242 241 242 243 244 247 249 248 245 243 240 235 234 236 238 240 246 259 276 286 292 297 299 299 298 296 293 289 287 283 280
201 204 205 203 202 203 202 202 204 206 207 208 209 210 210 211 212 212 213 213 212 213 215 216 219 220 221 222 225 228 230 229 228 228 227 226 227 228 229 230 232 233 234 236 238 237 237 239 241 240 241 241 240 241 242 242 243 243 243 245 246 244 243 244 242 237 234 235 235 237 246 258 270 281 290 294 293 294 295 296 296 293 289 284 283
201 203 203 202 203 203 202 203 205 207 207 207 207 208 209 211 212 212 212 211 211 213 215 216 219 220 220 222 225 228 230 230 229 228 227 227 229 230 230 231 232 233 235 237 239 238 238 238 239 241 242 241 238 240 242 241 240 239 237 237 241 244 242 241 239 237 235 231 233 241 250 260 272 285 291 290 287 293 297 297 297 295 291 290 292
201 202 202 202 202 202 202 204 206 207 206 205 205 207 209 210 211 210 210 210 212 214 215 216 219 219 221 222 225 228 230 229 229 228 227 228 230 231 231 230 230 233 235 237 240 241 239 238 239 242 242 242 242 242 243 241 238 235 233 234 240 244 243 243 241 236 231 228 238 251 261 273 284 289 288 284 285 291 296 297 299 298 297 296 295
201 202 201 202 202 202 202 204 206 206 205 204 205 207 208 209 209 208 209 211 213 214 215 217 218 219 221 222 224 227 229 229 229 228 227 229 230 230 230 228 229 231 233 237 241 242 239 237 239 242 242 243 244 243 243 240 236 234 233 235 238 240 242 242 240 236 232 231 239 253 270 283 286 283 281 282 284 288 293 297 299 299 299 296 293
201 201 201 202 202 203 203 204 205 205 204 203 205 207 208 208 208 207 208 210 211 213 215 216 218 219 220 221 223 225 226 226 228 228 227 229 228 227 227 227 227 229 232 237 239 240 240 240 240 241 242 242 242 242 240 237 235 234 230 229 233 237 236 232 227 231 236 233 239 258 278 283 276 272 274 274 277 287 292 293 295 295 293 290 287
202 202 203 204 203 204 203 204 204 204 203 204 206 208 208 208 208 207 207 209 211 213 214 215 217 219 220 220 222 222 222 224 227 227 227 228 227 225 225 224 224 227 231 236 238 239 242 243 240 239 240 242 241 240 237 235 232 224 216 226 242 243 237 230 224 231 238 240 252 269 275 270 265 264 268 274 285 290 288 287 289 283 275 273 276
203 204 206 206 206 205 203 203 204 203 204 205 206 207 208 209 209 208 208 209 211 213 214 215 217 218 219 220 221 220 220 223 225 225 227 228 225 224 223 220 222 225 228 232 235 238 241 241 238 236 239 241 240 237 236 235 227 218 220 239 246 239 231 227 223 229 241 255 268 270 263 259 261 268 280 290 293 290 286 285 280 267 268 280 287
206 208 210 209 207 206 204 204 204 204 205 206 206 207 209 209 208 207 208 210 211 212 213 215 216 217 217 218 217 217 219 221 221 223 226 226 223 221 219 217 219 222 223 226 229 231 234 235 235 237 238 238 236 234 236 235 230 228 234 237 233 228 223 219 221 235 254 262 262 258 254 257 268 283 295 298 293 289 288 278 265 271 289 297 295
208 210 212 210 208 207 206 205 206 206 207 206 205 206 208 207 206 207 207 208 209 211 213 214 214 215 215 214 214 215 218 219 218 220 223 222 219 218 217 217 219 219 218 219 222 224 226 228 231 233 232 231 232 232 233 234 233 235 235 228 224 221 215 212 228 250 259 256 251 250 254 265 282 295 298 291 285 287 276 259 270 293 304 305 301
211 212 212 210 209 209 209 209 209 209 209 207 205 205 206 206 205 206 206 207 208 209 210 211 211 212 211 210 211 214 217 218 218 218 217 215 215 215 216 218 219 217 214 213 215 218 222 224 225 225 223 224 226 222 220 224 229 231 228 221 217 214 214 227 246 251 247 245 245 251 264 279 293 301 284 259 265 276 270 276 291 303 309 311 308
213 212 210 209 209 209 210 211 211 211 210 208 206 205 204 204 204 204 204 205 206 207 207 205 204 203 202 203 207 209 211 214 215 215 212 210 211 212 214 217 218 217 215 215 214 215 219 220 220 220 220 219 217 212 212 219 227 228 220 212 211 218 232 244 244 236 234 238 245 258 273 285 307 115 180 220 261 284 291 295 297 299 305 309 308
214 212 210 209 210 210 209 210 211 211 212 209 206 205 203 201 202 202 202 203 202 202 201 198 195 191 189 191 196 201 204 205 208 209 207 204 205 206 209 214 217 217 218 218 218 218 219 220 219 220 220 216 211 210 212 220 228 224 213 211 218 229 235 233 227 226 232 238 246 250 218 163 155 171 210 251 275 284 293 297 294 296 301 305 304
213 213 211 210 210 209 208 209 209 210 211 208 206 205 201 198 198 198 199 199 198 196 194 191 188 185 182 182 183 188 193 195 195 198 199 198 197 200 206 211 213 214 214 215 219 222 224 223 219 215 212 207 205 210 217 222 221 214 211 218 225 226 221 217 218 225 230 231 221 196 172 171 188 213 250 278 285 289 294 293 289 292 298 299 297
209 210 209 211 211 209 207 208 209 210 209 208 207 206 201 196 195 195 194 193 192 192 190 187 184 180 177 177 176 177 182 186 186 185 188 190 192 196 202 205 206 207 208 209 215 220 219 213 205 200 199 200 204 212 217 213 205 205 214 222 217 211 210 212 219 225 224 210 199 194 193 203 225 248 272 287 291 292 291 287 287 293 298 298 300
206 207 207 210 210 207 206 207 207 207 206 205 205 204 201 196 191 189 188 187 184 180 175 171 173 174 170 168 168 169 173 177 178 178 181 184 187 191 195 197 196 195 195 196 199 199 193 188 189 191 192 194 201 209 211 208 206 211 219 214 206 205 209 215 223 226 215 203 203 210 221 234 250 270 285 291 292 289 284 284 289 295 301 305 308
210 210 209 209 208 207 208 207 204 203 203 203 201 198 195 193 190 190 190 185 175 167 161 161 168 176 173 166 162 162 167 173 175 176 178 179 182 184 187 189 189 188 187 186 183 180 178 178 182 186 188 190 197 204 210 212 213 214 212 206 204 207 211 217 225 222 211 209 216 226 239 254 268 281 285 282 281 280 279 281 287 294 304 311 314
217 216 212 208 206 206 206 205 203 200 195 193 192 193 192 191 189 190 192 190 183 176 172 172 175 177 176 172 167 164 168 175 178 179 179 179 182 185 186 186 186 185 185 183 176 172 174 177 181 184 185 188 195 202 207 207 202 200 203 205 208 212 218 223 225 220 217 221 229 237 252 268 277 279 273 264 266 271 272 276 285 296 308 315 318
208 214 215 212 210 207 204 202 199 192 184 180 178 178 182 187 189 188 187 187 186 185 182 182 180 175 170 172 176 177 179 180 180 180 181 183 187 190 189 187 186 183 181 179 176 173 175 179 182 184 185 189 195 199 199 197 195 198 203 208 214 221 225 226 224 224 228 233 240 252 265 272 269 257 247 252 260 263 265 276 289 299 312 320 321
145 99 47 23 357 268 224 207 192 182 178 175 169 159 152 157 171 177 175 174 178 184 186 185 182 176 170 171 177 183 184 182 179 179 182 185 187 189 189 187 186 182 179 177 175 175 177 180 183 186 187 190 195 198 196 196 199 203 207 215 223 227 229 229 228 231 236 240 248 257 259 250 238 233 239 249 256 262 271 280 290 301 317 324 320
94 73 63 59 54 49 38 24 22 184 181 176 167 156 141 128 127 143 158 166 171 178 183 182 179 176 174 173 175 175 177 179 179 178 180 183 185 186 186 185 183 181 180 180 178 178 181 184 185 186 189 192 195 197 197 200 206 213 219 226 230 234 237 238 236 237 241 245 247 241 228 221 225 235 243 249 258 272 279 281 293 312 319 321 320
101 95 92 87 82 79 72 57 36 11 327 214 176 162 151 137 123 124 135 145 151 158 167 173 173 171 171 173 174 173 174 177 177 176 177 180 181 180 181 181 180 178 179 180 180 182 185 187 186 187 190 192 193 195 200 208 216 222 228 234 239 243 244 242 239 238 236 230 221 211 209 219 233 240 245 254 266 276 279 286 309 321 323 323 323
104 102 101 100 97 95 92 91 89 66 4 330 284 198 168 151 135 124 122 124 128 133 139 150 159 160 158 160 163 164 166 171 174 175 175 176 176 175 174 174 174 176 179 184 186 185 185 187 187 187 188 190 193 197 202 208 214 219 224 229 233 232 226 220 218 212 201 193 195 201 213 231 241 244 249 257 263 267 276 302 320 324 326 326 326
108 103 101 104 111 116 117 113 109 103 80 24 334 304 194 138 126 120 117 115 112 112 116 128 144 148 147 148 152 156 159 164 170 174 175 174 174 173 169 166 168 173 179 187 191 189 187 188 187 185 185 188 190 191 189 190 194 199 200 200 197 194 194 194 189 183 181 185 195 211 228 238 242 244 247 247 245 255 285 313 322 324 328 330 330
108 106 104 98 99 127 154 151 139 129 116 110 69 358 32 85 101 108 114 115 111 110 114 124 135 139 141 144 149 155 160 162 166 171 174 176 176 173 168 166 169 175 181 187 191 191 191 188 183 180 183 182 176 173 173 174 175 177 179 184 187 187 187 184 179 179 186 197 209 221 227 228 228 226 224 224 230 256 297 316 320 323 329 333 333
109 107 109 112 109 98 96 162 168 161 147 132 120 82 69 79 91 101 108 112 114 115 120 126 129 131 135 140 147 153 153 153 159 165 170 173 176 176 174 173 175 180 183 188 191 191 189 185 180 177 177 172 166 166 168 168 167 169 174 184 191 192 190 187 187 193 203 208 210 211 209 208 209 209 207 216 235 264 296 310 315 319 324 329 331
109 108 110 114 115 109 94 85 171 157 142 131 123 109 96 93 96 99 105 112 117 120 124 128 130 133 134 137 145 149 147 148 153 158 162 168 173 177 180 179 180 183 186 189 191 190 184 180 178 176 172 168 167 168 168 165 168 172 175 179 184 188 191 194 197 202 206 205 205 206 207 209 212 211 214 225 242 266 290 300 308 315 319 324 328
108 103 102 105 107 106 107 114 130 134 127 122 117 110 103 100 101 104 108 113 117 122 127 129 133 137 140 143 148 149 148 150 155 158 164 172 177 180 184 185 185 187 189 189 189 187 180 176 176 175 172 171 171 170 168 168 171 174 175 177 183 188 193 196 198 200 203 205 207 209 214 218 215 212 216 225 239 265 287 297 306 312 316 322 327
111 105 101 105 108 111 115 123 127 120 113 111 111 110 109 110 114 118 120 121 123 129 133 135 137 142 146 149 152 153 152 156 162 167 172 178 183 187 192 192 191 192 192 190 187 183 179 177 176 175 174 175 174 171 170 172 174 177 181 186 190 193 196 198 201 202 204 208 211 214 218 219 215 211 213 219 235 267 289 299 304 306 311 320 326
112 114 117 121 123 127 131 134 131 120 112 112 115 118 120 123 127 129 130 131 132 134 137 140 145 149 151 154 157 161 163 167 172 176 180 183 188 192 196 198 198 198 196 191 185 182 180 178 178 178 179 178 175 172 173 175 178 183 191 195 198 200 201 200 202 203 205 209 215 221 225 221 212 208 209 218 243 274 291 297 298 300 306 316 323
113 117 122 127 130 131 131 130 127 121 117 118 123 127 130 133 135 135 135 135 137 138 138 141 147 151 155 159 163 167 171 174 177 180 183 187 192 196 199 202 204 204 200 192 186 183 182 181 182 184 183 179 176 175 177 181 187 195 201 203 203 204 204 203 204 205 208 213 220 224 222 214 208 206 212 229 257 282 293 293 291 295 304 311 319
105 112 115 119 123 126 128 131 132 130 129 131 134 136 137 137 137 138 138 138 140 141 140 143 150 155 159 164 168 171 176 180 181 183 187 190 195 199 202 204 206 204 200 195 190 188 187 188 189 189 186 182 180 181 185 190 198 205 207 206 207 208 208 208 208 209 211 214 217 217 213 207 205 209 222 243 267 286 294 292 285 289 301 310 318
90 103 111 117 120 125 132 137 137 136 138 140 140 142 144 142 140 139 139 138 140 144 147 152 160 164 166 169 172 175 179 183 185 188 191 195 198 200 202 201 198 194 194 195 195 194 195 197 195 191 187 184 184 188 193 201 208 210 209 207 207 208 210 211 211 212 214 215 214 215 215 213 213 222 237 256 275 287 291 287 279 283 298 310 319
85 90 102 114 121 127 133 139 140 140 142 143 141 142 146 146 144 143 145 145 146 151 157 163 170 174 177 178 180 181 183 186 190 194 197 199 201 201 199 195 191 187 187 191 195 198 202 202 196 190 186 186 188 193 201 208 212 212 211 210 210 211 212 214 215 214 213 215 219 223 223 221 225 236 251 266 278 285 286 277 270 280 298 310 320
69 61 72 87 98 108 120 131 137 138 140 142 142 142 145 149 150 152 155 154 154 158 166 171 176 181 183 183 183 185 187 190 194 199 203 204 204 202 199 196 192 189 187 188 192 198 201 201 197 192 189 189 193 198 206 212 213 212 212 213 214 214 214 214 214 214 215 219 224 225 223 226 238 253 266 273 277 277 272 260 258 277 296 308 321
69 52 62 71 77 89 105 114 119 125 132 139 144 147 150 155 159 160 161 161 163 169 175 177 177 180 184 186 188 191 194 196 197 197 198 201 201 200 201 201 199 197 196 197 198 202 203 202 201 199 196 196 199 203 208 213 213 210 208 209 209 209 209 211 215 220 221 221 221 222 227 243 261 270 273 275 271 263 252 244 250 272 291 305 319
82 75 74 75 73 73 80 90 101 116 125 130 147 160 163 164 166 166 165 167 169 171 174 175 175 178 182 186 190 193 195 194 192 188 186 187 187 189 195 199 202 204 206 207 208 208 204 202 203 204 202 203 206 209 211 212 211 208 204 203 204 206 210 213 220 224 221 218 221 230 247 268 283 281 275 268 257 246 240 237 245 267 288 305 317
70 83 103 100 87 73 57 48 53 90 116 121 183 200 167 162 166 166 165 166 168 168 170 173 176 178 182 185 188 192 193 191 188 184 179 178 179 182 187 192 198 203 206 207 207 205 202 202 204 206 206 209 213 213 211 210 207 204 201 201 201 202 198 194 202 213 216 221 232 243 256 277 290 285 271 257 245 238 235 234 247 274 292 305 317
39 49 139 138 130 128 134 122 357 50 105 138 188 208 153 163 176 168 162 162 165 167 171 177 179 180 182 184 186 189 191 190 187 184 180 180 183 188 193 196 200 203 203 203 202 202 202 204 206 207 210 213 215 213 211 208 205 202 200 197 194 192 188 184 189 200 210 223 237 247 261 278 286 279 263 249 238 230 225 230 252 278 293 306 322
17 89 115 131 143 142 148 175 188 153 123 134 186 194 187 192 192 176 163 165 169 171 176 182 183 182 183 185 188 191 195 195 195 195 195 195 199 205 210 212 212 209 207 207 208 208 207 207 208 210 213 215 213 211 210 210 206 200 194 189 188 190 196 203 206 208 216 229 242 254 269 279 280 271 257 241 223 212 214 232 255 271 288 311 325